DWI7607 KMIA-MDSD

Flight info

Callsign DWI7607
Flight time 1h 48m
Altitude 39000
Route KLADA2 JAGOR DCT RUMFO Y441 JUELE UW38 PTA DCT KODIX KODIX2G
Aircraft B38M/M-SDE1FGHILORVWXY/HB1

Departure

Time 2026-05-09 00:38
Airport Miami International Airport (KMIA)

Arrival

Time 2026-05-09 02:26
Airport Las Américas International Airport (MDSD)
Time Latitude Longitude Altitude Speed Heading
2026-05-08 23:57 25.79492 -80.28336 17 ft 0 kts 288°
2026-05-09 00:25 25.79491 -80.28334 18 ft 2 kts 288°
2026-05-09 00:25 25.79486 -80.28317 18 ft 2 kts 288°
2026-05-09 00:26 25.79481 -80.28300 18 ft 2 kts 288°
2026-05-09 00:26 25.79476 -80.28283 20 ft 2 kts 288°
2026-05-09 00:26 25.79470 -80.28260 19 ft 3 kts 278°
2026-05-09 00:26 25.79464 -80.28261 18 ft 3 kts 229°
2026-05-09 00:27 25.79455 -80.28266 20 ft 3 kts 195°
2026-05-09 00:27 25.79465 -80.28264 19 ft 3 kts 179°
2026-05-09 00:27 25.79444 -80.28264 17 ft 3 kts 181°
2026-05-09 00:27 25.79422 -80.28265 17 ft 3 kts 181°
2026-05-09 00:28 25.79401 -80.28266 17 ft 3 kts 181°
2026-05-09 00:28 25.79381 -80.28266 17 ft 0 kts 181°
2026-05-09 00:32 25.79370 -80.28267 17 ft 2 kts 183°
2026-05-09 00:32 25.79343 -80.28276 17 ft 8 kts 206°
2026-05-09 00:33 25.79282 -80.28330 17 ft 10 kts 223°
2026-05-09 00:33 25.79258 -80.28354 17 ft 1 kts 222°
2026-05-09 00:33 25.79231 -80.28394 17 ft 12 kts 250°
2026-05-09 00:33 25.79265 -80.28500 17 ft 17 kts 300°
2026-05-09 00:34 25.79326 -80.28621 17 ft 19 kts 299°
2026-05-09 00:34 25.79393 -80.28752 17 ft 20 kts 299°
2026-05-09 00:34 25.79466 -80.28896 17 ft 21 kts 300°
2026-05-09 00:34 25.79539 -80.29038 17 ft 22 kts 300°
2026-05-09 00:35 25.79619 -80.29193 17 ft 24 kts 299°
2026-05-09 00:35 25.79704 -80.29361 17 ft 26 kts 299°
2026-05-09 00:35 25.79776 -80.29501 17 ft 18 kts 300°
2026-05-09 00:35 25.79843 -80.29630 17 ft 19 kts 300°
2026-05-09 00:36 25.79896 -80.29740 17 ft 15 kts 294°
2026-05-09 00:36 25.79944 -80.29857 16 ft 18 kts 294°
2026-05-09 00:36 25.79984 -80.29999 16 ft 21 kts 284°
2026-05-09 00:36 25.80037 -80.30127 17 ft 17 kts 335°
2026-05-09 00:37 25.80074 -80.30093 16 ft 11 kts 88°
2026-05-09 00:37 25.80083 -80.29830 16 ft 69 kts 87°
2026-05-09 00:37 25.80116 -80.29034 20 ft 135 kts 87°
2026-05-09 00:37 25.80170 -80.27793 89 ft 180 kts 87°
2026-05-09 00:38 25.80285 -80.26396 815 ft 178 kts 85°
2026-05-09 00:38 25.80336 -80.25472 1354 ft 182 kts 94°
2026-05-09 00:38 25.79928 -80.24104 1888 ft 197 kts 123°
2026-05-09 00:38 25.79116 -80.22827 2505 ft 209 kts 122°
2026-05-09 00:39 25.78380 -80.21406 3121 ft 222 kts 117°
2026-05-09 00:39 25.77641 -80.19837 3709 ft 238 kts 116°
2026-05-09 00:39 25.76862 -80.18148 4288 ft 254 kts 116°
2026-05-09 00:39 25.76014 -80.16379 4997 ft 264 kts 117°
2026-05-09 00:40 25.75099 -80.14549 5620 ft 278 kts 118°
2026-05-09 00:40 25.74161 -80.12664 6466 ft 280 kts 118°
2026-05-09 00:40 25.73262 -80.10736 7272 ft 283 kts 112°
2026-05-09 00:41 25.71947 -80.06576 8851 ft 289 kts 111°
2026-05-09 00:41 25.71264 -80.04471 9634 ft 292 kts 112°
2026-05-09 00:41 25.70564 -80.02343 10312 ft 298 kts 112°
2026-05-09 00:41 25.69827 -80.00120 10709 ft 314 kts 112°
2026-05-09 00:42 25.69057 -79.97808 11222 ft 323 kts 112°
2026-05-09 00:42 25.68284 -79.95494 11909 ft 326 kts 112°
2026-05-09 00:42 25.67489 -79.93118 12582 ft 331 kts 112°
2026-05-09 00:42 25.66681 -79.90707 13264 ft 336 kts 112°
2026-05-09 00:43 25.65860 -79.88255 13949 ft 341 kts 112°
2026-05-09 00:43 25.65029 -79.85777 14561 ft 345 kts 112°
2026-05-09 00:43 25.64188 -79.83272 15214 ft 349 kts 112°
2026-05-09 00:43 25.63336 -79.80738 15832 ft 353 kts 112°
2026-05-09 00:44 25.62475 -79.78173 16439 ft 357 kts 112°
2026-05-09 00:44 25.61601 -79.75575 17050 ft 361 kts 112°
2026-05-09 00:44 25.60728 -79.72982 17628 ft 365 kts 112°
2026-05-09 00:44 25.59826 -79.70335 18213 ft 369 kts 115°
2026-05-09 00:45 25.58685 -79.67778 18698 ft 372 kts 118°
2026-05-09 00:45 25.57514 -79.65201 19171 ft 377 kts 118°
2026-05-09 00:45 25.56342 -79.62585 19638 ft 381 kts 118°
2026-05-09 00:45 25.55163 -79.59935 20107 ft 386 kts 118°
2026-05-09 00:46 25.53974 -79.57252 20576 ft 390 kts 118°
2026-05-09 00:46 25.52772 -79.54538 21048 ft 395 kts 118°
2026-05-09 00:46 25.51553 -79.51788 21522 ft 399 kts 118°
2026-05-09 00:46 25.50324 -79.49014 21977 ft 404 kts 118°
2026-05-09 00:47 25.49079 -79.46206 22460 ft 408 kts 118°
2026-05-09 00:47 25.47821 -79.43371 22932 ft 412 kts 118°
2026-05-09 00:47 25.46546 -79.40500 23404 ft 417 kts 118°
2026-05-09 00:47 25.45277 -79.37644 23820 ft 421 kts 118°
2026-05-09 00:48 25.43978 -79.34723 24248 ft 424 kts 118°
2026-05-09 00:48 25.42667 -79.31777 24690 ft 427 kts 118°
2026-05-09 00:48 25.41350 -79.28817 25122 ft 431 kts 118°
2026-05-09 00:48 25.40025 -79.25843 25537 ft 433 kts 118°
2026-05-09 00:49 25.38687 -79.22843 25944 ft 436 kts 118°
2026-05-09 00:49 25.37336 -79.19815 26361 ft 440 kts 118°
2026-05-09 00:49 25.35978 -79.16773 26762 ft 443 kts 118°
2026-05-09 00:49 25.34607 -79.13705 27126 ft 447 kts 118°
2026-05-09 00:50 25.33212 -79.10583 27186 ft 460 kts 118°
2026-05-09 00:50 25.31780 -79.07382 27372 ft 467 kts 118°
2026-05-09 00:50 25.30339 -79.04163 27815 ft 468 kts 118°
2026-05-09 00:50 25.28905 -79.00963 28166 ft 472 kts 118°
2026-05-09 00:51 25.27426 -78.97664 28545 ft 474 kts 118°
2026-05-09 00:51 25.25977 -78.94434 28918 ft 477 kts 118°
2026-05-09 00:51 25.24499 -78.91142 29267 ft 480 kts 118°
2026-05-09 00:51 25.23011 -78.87830 29624 ft 482 kts 118°
2026-05-09 00:52 25.21511 -78.84495 29976 ft 485 kts 118°
2026-05-09 00:52 25.20006 -78.81150 30281 ft 488 kts 118°
2026-05-09 00:52 25.18489 -78.77781 30593 ft 489 kts 118°
2026-05-09 00:52 25.16971 -78.74411 30903 ft 491 kts 118°
2026-05-09 00:53 25.15445 -78.71029 31206 ft 493 kts 118°
2026-05-09 00:53 25.13914 -78.67634 31504 ft 495 kts 118°
2026-05-09 00:53 25.12375 -78.64227 31802 ft 497 kts 118°
2026-05-09 00:53 25.10827 -78.60810 32100 ft 498 kts 119°
2026-05-09 00:54 25.09189 -78.57491 32377 ft 500 kts 120°
2026-05-09 00:54 25.07519 -78.54119 32671 ft 502 kts 120°
2026-05-09 00:54 25.05850 -78.50730 32948 ft 504 kts 120°
2026-05-09 00:54 25.04176 -78.47329 33219 ft 506 kts 120°
2026-05-09 00:55 25.02495 -78.43916 33495 ft 507 kts 120°
2026-05-09 00:55 25.00810 -78.40496 33810 ft 508 kts 120°
2026-05-09 00:55 24.99120 -78.37071 34142 ft 507 kts 120°
2026-05-09 00:55 24.97436 -78.33657 34458 ft 507 kts 120°
2026-05-09 00:56 24.95753 -78.30249 34815 ft 505 kts 120°
2026-05-09 00:56 24.94076 -78.26857 35151 ft 503 kts 120°
2026-05-09 00:56 24.92399 -78.23466 35473 ft 503 kts 120°
2026-05-09 00:56 24.90727 -78.20088 35792 ft 502 kts 120°
2026-05-09 00:57 24.89077 -78.16756 36108 ft 500 kts 120°
2026-05-09 00:57 24.87408 -78.13388 36422 ft 499 kts 120°
2026-05-09 00:57 24.85745 -78.10037 36749 ft 498 kts 120°
2026-05-09 00:57 24.84082 -78.06688 37057 ft 497 kts 120°
2026-05-09 00:58 24.82426 -78.03354 37361 ft 496 kts 120°
2026-05-09 00:58 24.80775 -78.00031 37658 ft 494 kts 120°
2026-05-09 00:58 24.79122 -77.96709 37951 ft 493 kts 120°
2026-05-09 00:58 24.77478 -77.93405 38235 ft 492 kts 120°
2026-05-09 00:59 24.75837 -77.90111 38508 ft 490 kts 120°
2026-05-09 00:59 24.74218 -77.86863 38749 ft 489 kts 120°
2026-05-09 00:59 24.72579 -77.83578 38931 ft 488 kts 120°
2026-05-09 00:59 24.70945 -77.80303 39022 ft 488 kts 120°
2026-05-09 01:00 24.67653 -77.73788 39005 ft 484 kts 125°
2026-05-09 01:00 24.63962 -77.67615 39012 ft 484 kts 125°
2026-05-09 01:01 24.60332 -77.61434 39012 ft 483 kts 125°
2026-05-09 01:01 24.56696 -77.55230 39012 ft 483 kts 125°
2026-05-09 01:02 24.53059 -77.49031 39013 ft 483 kts 125°
2026-05-09 01:02 24.49415 -77.42828 39017 ft 482 kts 125°
2026-05-09 01:03 24.45780 -77.36647 39018 ft 482 kts 125°
2026-05-09 01:03 24.42135 -77.30460 39018 ft 482 kts 124°
2026-05-09 01:04 24.38516 -77.24321 39016 ft 482 kts 124°
2026-05-09 01:04 24.34878 -77.18160 39017 ft 482 kts 124°
2026-05-09 01:05 24.31234 -77.11994 39022 ft 482 kts 124°
2026-05-09 01:06 24.25762 -77.02754 39022 ft 481 kts 124°
2026-05-09 01:06 24.22115 -76.96603 39021 ft 480 kts 124°
2026-05-09 01:07 24.18475 -76.90472 39020 ft 480 kts 124°
2026-05-09 01:07 24.14834 -76.84349 39021 ft 479 kts 124°
2026-05-09 01:08 24.11216 -76.78270 39020 ft 479 kts 124°
2026-05-09 01:08 24.07577 -76.72163 39023 ft 479 kts 124°
2026-05-09 01:09 24.03937 -76.66064 39021 ft 478 kts 124°
2026-05-09 01:09 24.00294 -76.59966 39020 ft 478 kts 124°
2026-05-09 01:10 23.96652 -76.53877 39020 ft 478 kts 124°
2026-05-09 01:10 23.93009 -76.47794 39023 ft 477 kts 124°
2026-05-09 01:11 23.89374 -76.41733 39022 ft 477 kts 124°
2026-05-09 01:11 23.85731 -76.35663 39022 ft 477 kts 124°
2026-05-09 01:12 23.82115 -76.29647 39020 ft 477 kts 124°
2026-05-09 01:12 23.78469 -76.23591 39024 ft 477 kts 124°
2026-05-09 01:13 23.74820 -76.17534 39021 ft 476 kts 124°
2026-05-09 01:13 23.71179 -76.11499 39026 ft 476 kts 124°
2026-05-09 01:14 23.67537 -76.05468 39027 ft 476 kts 124°
2026-05-09 01:14 23.63913 -75.99474 39027 ft 476 kts 124°
2026-05-09 01:15 23.60269 -75.93456 39026 ft 475 kts 124°
2026-05-09 01:15 23.56621 -75.87437 39030 ft 475 kts 124°
2026-05-09 01:16 23.52974 -75.81428 39031 ft 475 kts 124°
2026-05-09 01:16 23.49328 -75.75427 39028 ft 475 kts 124°
2026-05-09 01:17 23.43857 -75.66436 39031 ft 475 kts 124°
2026-05-09 01:17 23.40229 -75.60482 39031 ft 475 kts 124°
2026-05-09 01:18 23.36572 -75.54489 39032 ft 475 kts 124°
2026-05-09 01:18 23.32940 -75.48543 39033 ft 474 kts 124°
2026-05-09 01:19 23.29287 -75.42570 39036 ft 475 kts 124°
2026-05-09 01:19 23.25629 -75.36594 39034 ft 475 kts 124°
2026-05-09 01:20 23.21965 -75.30616 39034 ft 474 kts 124°
2026-05-09 01:20 23.18304 -75.24649 39036 ft 474 kts 124°
2026-05-09 01:21 23.14638 -75.18679 39034 ft 474 kts 124°
2026-05-09 01:21 23.10974 -75.12721 39035 ft 474 kts 124°
2026-05-09 01:22 23.07239 -75.06860 39034 ft 474 kts 125°
2026-05-09 01:22 23.03434 -75.01003 39033 ft 474 kts 125°
2026-05-09 01:23 22.99630 -74.95140 39033 ft 474 kts 125°
2026-05-09 01:23 22.95835 -74.89296 39038 ft 473 kts 125°
2026-05-09 01:24 22.92039 -74.83457 39039 ft 473 kts 125°
2026-05-09 01:24 22.88259 -74.77650 39036 ft 473 kts 125°
2026-05-09 01:25 22.84456 -74.71813 39041 ft 473 kts 125°
2026-05-09 01:25 22.80655 -74.65986 39036 ft 473 kts 125°
2026-05-09 01:26 22.77494 -74.61145 39038 ft 473 kts 125°
2026-05-09 01:26 22.73691 -74.55328 39040 ft 473 kts 125°
2026-05-09 01:27 22.69884 -74.49510 39038 ft 473 kts 125°
2026-05-09 01:27 22.66078 -74.43701 39038 ft 473 kts 125°
2026-05-09 01:28 22.62273 -74.37899 39039 ft 473 kts 125°
2026-05-09 01:28 22.58460 -74.32091 39041 ft 473 kts 125°
2026-05-09 01:29 22.54645 -74.26287 39041 ft 473 kts 125°
2026-05-09 01:29 22.50857 -74.20532 39033 ft 472 kts 125°
2026-05-09 01:30 22.47041 -74.14737 39034 ft 472 kts 125°
2026-05-09 01:30 22.43220 -74.08944 39036 ft 473 kts 125°
2026-05-09 01:31 22.39402 -74.03161 39035 ft 472 kts 125°
2026-05-09 01:31 22.35582 -73.97381 39039 ft 473 kts 125°
2026-05-09 01:32 22.31760 -73.91604 39041 ft 473 kts 124°
2026-05-09 01:32 22.27936 -73.85831 39037 ft 473 kts 124°
2026-05-09 01:33 22.24131 -73.80091 39037 ft 473 kts 124°
2026-05-09 01:33 22.20302 -73.74322 39040 ft 473 kts 124°
2026-05-09 01:34 22.16470 -73.68556 39040 ft 473 kts 124°
2026-05-09 01:34 22.12633 -73.62787 39038 ft 473 kts 124°
2026-05-09 01:35 22.08793 -73.57020 39038 ft 473 kts 124°
2026-05-09 01:35 22.04954 -73.51261 39040 ft 473 kts 124°
2026-05-09 01:36 22.01132 -73.45535 39040 ft 473 kts 124°
2026-05-09 01:36 21.97287 -73.39779 39040 ft 473 kts 124°
2026-05-09 01:37 21.93441 -73.34027 39041 ft 473 kts 124°
2026-05-09 01:37 21.89592 -73.28277 39038 ft 473 kts 124°
2026-05-09 01:38 21.85736 -73.22524 39038 ft 473 kts 124°
2026-05-09 01:38 21.81903 -73.16811 39037 ft 473 kts 124°
2026-05-09 01:39 21.78048 -73.11070 39038 ft 473 kts 124°
2026-05-09 01:39 21.74185 -73.05324 39035 ft 473 kts 124°
2026-05-09 01:40 21.70325 -72.99588 39037 ft 473 kts 124°
2026-05-09 01:40 21.66458 -72.93848 39039 ft 473 kts 124°
2026-05-09 01:41 21.62620 -72.88157 39037 ft 473 kts 124°
2026-05-09 01:41 21.58749 -72.82422 39038 ft 473 kts 124°
2026-05-09 01:42 21.54877 -72.76692 39037 ft 473 kts 124°
2026-05-09 01:42 21.51007 -72.70973 39039 ft 473 kts 124°
2026-05-09 01:43 21.47133 -72.65252 39039 ft 473 kts 124°
2026-05-09 01:43 21.43276 -72.59562 39041 ft 473 kts 124°
2026-05-09 01:44 21.39390 -72.53835 39039 ft 473 kts 125°
2026-05-09 01:44 21.35511 -72.48126 39039 ft 473 kts 125°
2026-05-09 01:45 21.31630 -72.42418 39041 ft 474 kts 125°
2026-05-09 01:45 21.27766 -72.36742 39038 ft 474 kts 125°
2026-05-09 01:46 21.25657 -72.34022 39024 ft 474 kts 137°
2026-05-09 01:46 21.23156 -72.31718 39036 ft 475 kts 136°
2026-05-09 01:46 21.18394 -72.26796 39046 ft 476 kts 135°
2026-05-09 01:47 21.13672 -72.21820 39042 ft 475 kts 134°
2026-05-09 01:47 21.08961 -72.16846 39043 ft 476 kts 134°
2026-05-09 01:48 21.04273 -72.11901 39044 ft 476 kts 134°
2026-05-09 01:48 20.99546 -72.06919 39041 ft 476 kts 134°
2026-05-09 01:49 20.94822 -72.01946 39042 ft 476 kts 134°
2026-05-09 01:49 20.90134 -71.97013 39043 ft 476 kts 134°
2026-05-09 01:50 20.85410 -71.92048 39044 ft 476 kts 134°
2026-05-09 01:50 20.80676 -71.87078 39042 ft 476 kts 134°
2026-05-09 01:51 20.75942 -71.82112 39044 ft 476 kts 134°
2026-05-09 01:51 20.71208 -71.77151 39042 ft 476 kts 134°
2026-05-09 01:52 20.66509 -71.72231 39044 ft 476 kts 134°
2026-05-09 01:52 20.61770 -71.67272 39041 ft 476 kts 134°
2026-05-09 01:53 20.57028 -71.62316 39037 ft 477 kts 134°
2026-05-09 01:53 20.52290 -71.57369 39039 ft 477 kts 134°
2026-05-09 01:54 20.47544 -71.52417 39039 ft 477 kts 134°
2026-05-09 01:54 20.42831 -71.47505 39040 ft 477 kts 134°
2026-05-09 01:55 20.38084 -71.42562 39038 ft 477 kts 134°
2026-05-09 01:55 20.33332 -71.37617 39038 ft 477 kts 134°
2026-05-09 01:56 20.28579 -71.32678 39039 ft 477 kts 134°
2026-05-09 01:56 20.23855 -71.27763 39043 ft 477 kts 134°
2026-05-09 01:57 20.19098 -71.22815 39040 ft 477 kts 134°
2026-05-09 01:57 20.14334 -71.17864 39041 ft 478 kts 134°
2026-05-09 01:58 20.09603 -71.12951 39041 ft 478 kts 134°
2026-05-09 01:58 20.04843 -71.08012 39045 ft 478 kts 135°
2026-05-09 01:59 20.00082 -71.03078 39042 ft 478 kts 135°
2026-05-09 01:59 19.97699 -71.00609 38931 ft 478 kts 135°
2026-05-09 01:59 19.95321 -70.98147 38684 ft 476 kts 135°
2026-05-09 02:00 19.92946 -70.95689 38415 ft 476 kts 135°
2026-05-09 02:00 19.90573 -70.93235 38129 ft 476 kts 135°
2026-05-09 02:00 19.88198 -70.90780 37867 ft 476 kts 135°
2026-05-09 02:00 19.85823 -70.88324 37595 ft 477 kts 135°
2026-05-09 02:01 19.83471 -70.85895 37335 ft 477 kts 135°
2026-05-09 02:01 19.81103 -70.83449 36593 ft 476 kts 135°
2026-05-09 02:01 19.78703 -70.80972 35511 ft 486 kts 135°
2026-05-09 02:01 19.76264 -70.78455 34715 ft 488 kts 135°
2026-05-09 02:02 19.73830 -70.75945 34036 ft 487 kts 135°
2026-05-09 02:02 19.71402 -70.73441 33186 ft 488 kts 135°
2026-05-09 02:02 19.68963 -70.70928 32486 ft 486 kts 135°
2026-05-09 02:02 19.66550 -70.68443 31927 ft 481 kts 134°
2026-05-09 02:03 19.64157 -70.65980 31261 ft 478 kts 134°
2026-05-09 02:03 19.61777 -70.63531 30679 ft 475 kts 134°
2026-05-09 02:03 19.59442 -70.61131 30107 ft 471 kts 134°
2026-05-09 02:03 19.57101 -70.58723 29460 ft 467 kts 134°
2026-05-09 02:04 19.54776 -70.56334 28849 ft 463 kts 134°
2026-05-09 02:04 19.52469 -70.53964 28284 ft 459 kts 134°
2026-05-09 02:04 19.50184 -70.51617 27710 ft 454 kts 134°
2026-05-09 02:04 19.47924 -70.49297 27161 ft 450 kts 134°
2026-05-09 02:05 19.45678 -70.46993 26604 ft 447 kts 134°
2026-05-09 02:05 19.43483 -70.44741 26065 ft 444 kts 134°
2026-05-09 02:05 19.41271 -70.42475 25525 ft 441 kts 134°
2026-05-09 02:05 19.39045 -70.40193 24968 ft 438 kts 134°
2026-05-09 02:06 19.36887 -70.37983 24444 ft 436 kts 134°
2026-05-09 02:06 19.34722 -70.35766 23905 ft 428 kts 134°
2026-05-09 02:06 19.32609 -70.33603 23365 ft 420 kts 134°
2026-05-09 02:07 19.28421 -70.29318 22261 ft 415 kts 134°
2026-05-09 02:07 19.26353 -70.27204 21771 ft 410 kts 134°
2026-05-09 02:07 19.24318 -70.25123 21284 ft 403 kts 133°
2026-05-09 02:07 19.22344 -70.23106 20890 ft 394 kts 133°
2026-05-09 02:08 19.20409 -70.21131 20715 ft 379 kts 133°
2026-05-09 02:08 19.18551 -70.19234 20545 ft 364 kts 133°
2026-05-09 02:08 19.16757 -70.17403 20385 ft 353 kts 133°
2026-05-09 02:08 19.15011 -70.15621 20229 ft 344 kts 133°
2026-05-09 02:09 19.13257 -70.13911 19822 ft 346 kts 137°
2026-05-09 02:09 19.11383 -70.12260 19203 ft 353 kts 136°
2026-05-09 02:09 19.09489 -70.10577 18645 ft 356 kts 136°
2026-05-09 02:09 19.07607 -70.08896 18029 ft 360 kts 136°
2026-05-09 02:10 19.05697 -70.07186 17480 ft 358 kts 136°
2026-05-09 02:10 19.03823 -70.05507 17099 ft 349 kts 136°
2026-05-09 02:10 19.01999 -70.03873 16745 ft 339 kts 136°
2026-05-09 02:10 19.00225 -70.02283 16344 ft 328 kts 136°
2026-05-09 02:11 18.98508 -70.00745 15985 ft 319 kts 136°
2026-05-09 02:11 18.96842 -69.99252 15640 ft 309 kts 136°
2026-05-09 02:11 18.95222 -69.97801 15379 ft 303 kts 136°
2026-05-09 02:11 18.93625 -69.96372 14937 ft 304 kts 136°
2026-05-09 02:12 18.91962 -69.94883 14337 ft 314 kts 136°
2026-05-09 02:12 18.90204 -69.93559 14143 ft 307 kts 145°
2026-05-09 02:12 18.88405 -69.92406 13962 ft 298 kts 144°
2026-05-09 02:12 18.86671 -69.91268 13746 ft 290 kts 144°
2026-05-09 02:13 18.84967 -69.90136 13343 ft 289 kts 144°
2026-05-09 02:13 18.83275 -69.89003 12972 ft 286 kts 144°
2026-05-09 02:13 18.81597 -69.87876 12585 ft 285 kts 144°
2026-05-09 02:13 18.79934 -69.86756 12171 ft 283 kts 144°
2026-05-09 02:14 18.78302 -69.85656 11733 ft 281 kts 144°
2026-05-09 02:14 18.76664 -69.84551 11300 ft 278 kts 144°
2026-05-09 02:14 18.75037 -69.83441 10836 ft 276 kts 141°
2026-05-09 02:14 18.73779 -69.81978 10411 ft 267 kts 115°
2026-05-09 02:15 18.73315 -69.80132 9964 ft 259 kts 88°
2026-05-09 02:15 18.73584 -69.78267 9449 ft 257 kts 77°
2026-05-09 02:15 18.73927 -69.76415 8950 ft 257 kts 78°
2026-05-09 02:15 18.74261 -69.74569 8507 ft 256 kts 78°
2026-05-09 02:16 18.74601 -69.72732 8043 ft 254 kts 76°
2026-05-09 02:16 18.75318 -69.71050 7582 ft 252 kts 50°
2026-05-09 02:16 18.76701 -69.69954 7124 ft 251 kts 22°
2026-05-09 02:16 18.78401 -69.69707 6676 ft 252 kts 353°
2026-05-09 02:17 18.80026 -69.70370 6221 ft 254 kts 324°
2026-05-09 02:17 18.81127 -69.71774 5994 ft 245 kts 297°
2026-05-09 02:17 18.81521 -69.73462 5811 ft 235 kts 269°
2026-05-09 02:17 18.81137 -69.75087 5553 ft 225 kts 241°
2026-05-09 02:18 18.80151 -69.76311 5287 ft 217 kts 216°
2026-05-09 02:18 18.78820 -69.76984 5024 ft 209 kts 191°
2026-05-09 02:18 18.77400 -69.77034 4793 ft 201 kts 168°
2026-05-09 02:18 18.76062 -69.76725 4589 ft 193 kts 165°
2026-05-09 02:19 18.74789 -69.76430 4404 ft 186 kts 166°
2026-05-09 02:19 18.73540 -69.76151 4212 ft 180 kts 166°
2026-05-09 02:19 18.72349 -69.75902 4091 ft 169 kts 167°
2026-05-09 02:19 18.71186 -69.75669 4019 ft 173 kts 167°
2026-05-09 02:20 18.69998 -69.75427 3963 ft 178 kts 166°
2026-05-09 02:20 18.68780 -69.75171 3870 ft 179 kts 166°
2026-05-09 02:20 18.67564 -69.74917 3773 ft 178 kts 166°
2026-05-09 02:20 18.66349 -69.74666 3678 ft 178 kts 166°
2026-05-09 02:21 18.65136 -69.74417 3577 ft 177 kts 166°
2026-05-09 02:21 18.63918 -69.74192 3474 ft 178 kts 171°
2026-05-09 02:21 18.62692 -69.74046 3376 ft 177 kts 167°
2026-05-09 02:21 18.61895 -69.73882 3299 ft 176 kts 164°
2026-05-09 02:22 18.60715 -69.73554 3188 ft 175 kts 160°
2026-05-09 02:22 18.59553 -69.73170 3040 ft 174 kts 158°
2026-05-09 02:22 18.58427 -69.72769 2877 ft 168 kts 158°
2026-05-09 02:22 18.57343 -69.72374 2691 ft 164 kts 157°
2026-05-09 02:23 18.56278 -69.71984 2498 ft 157 kts 156°
2026-05-09 02:23 18.55261 -69.71614 2266 ft 154 kts 158°
2026-05-09 02:23 18.54241 -69.71269 2014 ft 152 kts 157°
2026-05-09 02:23 18.53253 -69.70898 1771 ft 148 kts 155°
2026-05-09 02:24 18.52291 -69.70525 1571 ft 151 kts 155°
2026-05-09 02:24 18.51306 -69.70164 1337 ft 149 kts 157°
2026-05-09 02:24 18.50343 -69.69816 1203 ft 146 kts 157°
2026-05-09 02:24 18.49365 -69.69455 1083 ft 150 kts 156°
2026-05-09 02:25 18.48375 -69.69084 908 ft 151 kts 156°
2026-05-09 02:25 18.47392 -69.68725 729 ft 149 kts 158°
2026-05-09 02:25 18.46425 -69.68358 567 ft 146 kts 158°
2026-05-09 02:25 18.45457 -69.68011 379 ft 149 kts 159°
2026-05-09 02:26 18.44481 -69.67648 166 ft 149 kts 158°
2026-05-09 02:26 18.43526 -69.67294 67 ft 135 kts 161°
2026-05-09 02:26 18.42865 -69.67052 73 ft 66 kts 161°
2026-05-09 02:26 18.42534 -69.66932 70 ft 47 kts 160°
2026-05-09 02:27 18.42310 -69.66840 67 ft 21 kts 144°
2026-05-09 02:27 18.42238 -69.66800 70 ft 7 kts 208°
2026-05-09 02:27 18.42240 -69.66821 68 ft 5 kts 323°
2026-05-09 02:27 18.42316 -69.66850 65 ft 18 kts 341°
2026-05-09 02:28 18.42463 -69.66903 69 ft 22 kts 341°
2026-05-09 02:28 18.42609 -69.66954 71 ft 23 kts 341°
2026-05-09 02:28 18.42763 -69.67012 66 ft 24 kts 340°
2026-05-09 02:28 18.42900 -69.67063 72 ft 17 kts 340°
2026-05-09 02:29 18.42950 -69.67146 70 ft 13 kts 278°
2026-05-09 02:29 18.42960 -69.67267 65 ft 15 kts 276°
2026-05-09 02:29 18.42973 -69.67356 59 ft 12 kts 288°
2026-05-09 02:29 18.43024 -69.67421 65 ft 10 kts 324°
2026-05-09 02:30 18.43051 -69.67437 67 ft 0 kts 335°
2026-05-09 02:30 18.43062 -69.67442 67 ft 4 kts 340°
2026-05-09 02:30 18.43106 -69.67457 67 ft 8 kts 341°
2026-05-09 02:30 18.43158 -69.67475 62 ft 8 kts 342°
2026-05-09 02:31 18.43206 -69.67492 63 ft 7 kts 341°
2026-05-09 02:31 18.43235 -69.67514 62 ft 3 kts 305°
2026-05-09 02:31 18.43240 -69.67524 64 ft 1 kts 294°
2026-05-09 02:31 18.43242 -69.67539 66 ft 3 kts 265°
2026-05-09 02:32 18.43232 -69.67565 69 ft 6 kts 245°
2026-05-09 02:32 18.43216 -69.67600 70 ft 2 kts 243°
2026-05-09 02:32 18.43214 -69.67605 65 ft 0 kts 243°